Location: Boiro
(42.6475°N, 8.8834°W)
Time: 03:24:49
(UTC+01:00)

Explorer 11/Cluster Stage 4 - Pass Details

Date: 30 November 2021
Orbit: 467 x 1255 km, 28.8° (Epoch: 20 January)

Event Time Altitude Azimuth Distance (km) Brightness Sun altitude
Rises 08:38:06 0° 256° (WSW) 4,152 9.8 -1.9°
Reaches altitude 10° 08:41:34 10° 244° (WSW) 3,218 9.4 -1.4°
Maximum altitude 08:47:53 25° 194° (SSW) 2,276 9.2 -0.4°
Drops below altitude 10° 08:54:01 10° 143° (SE) 3,106 11.1 0.6°
Sets 08:57:18 0° 131° (SE) 3,978 12.6 1.1°
